{"data":{"norad_id":48470,"epoch":"2026-05-25T03:54:10.152000Z","epoch_age_seconds":60973,"freshness":"FRESH","line1":"1 48470U 21040AU  26145.16261750  .00006075  00000+0  20717-3 0  9993","line2":"2 48470  53.1576 195.3628 0001132  91.3615 268.7516 15.31731998278210","mean_motion":15.31731998,"eccentricity":0.0001132,"inclination_deg":53.1576,"raan_deg":195.3628,"arg_perigee_deg":91.3615,"mean_anomaly_deg":268.7516,"bstar":0.00020717,"rev_number":27821,"period_min":94.011224018316,"perigee_km":469.86933043464,"apogee_km":471.41989459172,"semimajor_km":6848.7816125132,"source":"CELESTRAK","updated_at":"2026-05-25T13:38:16.721151Z"}}